Norfolk International Airport Airport (ORF)

 

Airport Diagram
Current Weather/Forecast (VFR Conditions)
METAR KORF 302251Z 24009KT 10SM SCT043 20/13 A2946 RMK AO2 RAE2155 SLP974 P0000 T02000133
TAF KORF 302117Z 3021/0118 20025G35KT 6SM -SHRA SCT025 BKN035 TEMPO 3021/3022 1SM +SHRA BKN025 FM302200 23015G23KT P6SM BKN050 FM010000 23012KT P6SM BKN080 FM011300 24013G20KT P6SM SCT040

All Charts
General
Chart Name Download
AIRPORT DIAGRAM
TAKEOFF MINIMUMS
ALTERNATE MINIMUMS

Departures
Chart Name Download
KISRR THREE

Arrivals
Chart Name Download
DRONE TWO
DRONE TWO, CONT.1
TERKS TWO

Approaches
Chart Name Download
ILS OR LOC RWY 05
ILS OR LOC RWY 23
RNAV (RNP) Y RWY 05
RNAV (RNP) Y RWY 23
RNAV (GPS) RWY 14
RNAV (GPS) RWY 32
RNAV (GPS) Z RWY 05
RNAV (GPS) Z RWY 23
VOR/DME RWY 32
VOR RWY 14
RIVER VISUAL RWY 05


Inbound Traffic (Arrivals)

No inbound traffic.


Outbound Traffic (Departures)

No outbound traffic.